Location: Whispering Pines Observatory
(39.4020°N, 104.7430°W)
Time: 17:11:34
(UTC-07:00)

MOS 1 Rocket - Visible Passes

Search period start: 22 February 2017 00:00
Search period end: 04 March 2017 00:00
Orbit: 616 x 830 km, 97.4° (Epoch: 21 February)

Date Brightness Start Highest point End Pass type
(mag) Time Alt. Az. Time Alt. Az. Time Alt. Az.
22 Feb 5.3 04:03:48 10° N 04:05:45 22° N 04:05:45 22° N visible
23 Feb 5.9 03:14:53 10° NNE 03:16:22 18° NNE 03:16:22 18° NNE visible
23 Feb 5.4 04:53:59 10° NNW 04:55:41 16° NNW 04:55:41 16° NNW visible
24 Feb 5.2 04:04:06 10° N 04:06:18 24° N 04:06:18 24° N visible
25 Feb 5.8 03:15:11 10° NNE 03:16:54 20° NNE 03:16:54 20° NNE visible
25 Feb 5.3 04:54:20 10° NNW 04:56:14 17° NW 04:56:14 17° NW visible
26 Feb 5.1 04:04:24 10° N 04:06:50 26° N 04:06:50 26° N visible
27 Feb 5.7 03:15:28 10° NNE 03:17:26 22° NNE 03:17:26 22° NNE visible
27 Feb 5.3 04:54:41 10° NNW 04:56:45 17° NW 04:56:45 17° NW visible
28 Feb 6.6 02:27:46 10° NE 02:28:01 11° NE 02:28:01 11° NE visible
28 Feb 5.0 04:04:43 10° N 04:07:21 28° N 04:07:21 28° N visible
01 Mar 5.5 03:15:46 10° NNE 03:17:57 24° NNE 03:17:57 24° NNE visible
01 Mar 5.2 04:55:01 10° NNW 04:57:16 17° NW 04:57:16 17° NW visible
02 Mar 6.5 02:28:03 10° NE 02:28:32 12° NE 02:28:32 12° NE visible
02 Mar 4.8 04:05:02 10° N 04:07:51 30° NNW 04:07:51 30° NNW visible
03 Mar 5.4 03:16:03 10° NNE 03:18:26 26° NNE 03:18:26 26° NNE visible
03 Mar 5.2 04:55:23 10° NNW 04:57:46 17° NW 04:57:46 17° NW visible
